{"data":{"norad_id":60561,"epoch":"2026-05-25T03:54:13.747968Z","epoch_age_seconds":54191,"freshness":"FRESH","line1":"1 60561U 24149CX  26145.16265912  .00016770  00000+0  41117-3 0  9995","line2":"2 60561  97.3697 228.8674 0004015  33.5344 326.6156 15.40786629 98790","mean_motion":15.40786629,"eccentricity":0.0004015,"inclination_deg":97.3697,"raan_deg":228.8674,"arg_perigee_deg":33.5344,"mean_anomaly_deg":326.6156,"bstar":0.00041117,"rev_number":9879,"period_min":93.458754956524,"perigee_km":441.04742998142,"apogee_km":446.52543449751,"semimajor_km":6821.9234322395,"source":"CELESTRAK","updated_at":"2026-05-25T13:38:13.335111Z"}}